Weather Roundup
Issued by NWS Springfield, MO

Home | Current Version | Previous Version | Text Only | Print | Product List | Glossary On
Versions: 1 2 3 4 5 6 7 8 9 10 11 12 13 14 15 16 17 18 19 20 21 22 23 24 25 26 27 28 29 30 31 32 33 34 35 36 37 38 39 40 41 42 43 44 45 46 47 48 49 50
000
NZUS99 KSGF 190057
HRRSGF

HOURLY WEATHER
NATIONAL WEATHER SERVICE SPRINGFIELD MO
800 PM CDT MON SEP 18 2017

......SGF CWA......

CITY           SKY/WX    TMP DP  RH WIND       PRES   REMARKS
SPRINGFIELD    CLEAR     71  66  84 SW5       29.95F
JOPLIN         CLEAR     73  67  81 CALM      29.95R
WEST PLAINS    CLOUDY    72  70  93 CALM      30.00R
ROLLA          CLOUDY    68  67  96 SE7       29.98S
BRANSON        PTCLDY    72  66  83 SE3       29.99S

......SURROUNDING SGF CWA......

CITY           SKY/WX    TMP DP  RH WIND       PRES   REMARKS
CHANUTE        CLEAR     73  67  81 E6        29.93R
COFFEYVILLE    CLEAR     75  67  76 SE5       29.91S
EMPORIA        CLEAR     74  66  76 SE10      29.89F
HARRISON AR    CLEAR     71  68  90 CALM      29.99R

......KANSAS AND MISSOURI......

CITY           SKY/WX    TMP DP  RH WIND       PRES   REMARKS
KANSAS CTY INT PTCLDY    67  66  97 S7        29.92F
SEDALIA        PTCLDY    70  69  97 SE5       29.97S
ST JOSEPH      CLEAR     70  68  93 SE5       29.91R
ST LOUIS       LGT RAIN  73  71  93 NW8       29.96R
SPIRIT OF STL  TSTM      70  70 100 W5        29.95R FOG
WICHITA        MOCLDY    79  65  62 SE8       29.88S
TOPEKA         CLEAR     72  69  90 SE7       29.90S
OLATHE         PTCLDY    69  68  96 E6        29.93F

......TENNESSEE......

CITY           SKY/WX    TMP DP  RH WIND       PRES   REMARKS
MEMPHIS        NOT AVBL
NASHVILLE      PTCLDY    79  67  66 N12       30.01S

......ARKANSAS.......

CITY           SKY/WX    TMP DP  RH WIND       PRES   REMARKS
FAYETTEVILLE   CLEAR     70  70 100 CALM      29.96R
FT SMITH       CLEAR     81  66  60 CALM      29.90S
LITTLE ROCK    PTCLDY    77  73  87 S6        29.93S

......OKLAHOMA.......

CITY           SKY/WX    TMP DP  RH WIND       PRES   REMARKS
TULSA          CLEAR     80  66  62 SE7       29.90S
PONCA CITY     CLOUDY    80  65  59 SE12      29.88S
MCALESTER      CLEAR     77  72  84 CALM      29.93R
OKLAHOMA CITY  PTCLDY    74  66  76 SE8       29.92S

......IOWA............

CITY           SKY/WX    TMP DP  RH WIND       PRES   REMARKS
DES MOINES     NOT AVBL
QUAD CITIES    CLOUDY    73  64  73 CALM      29.94R

......ILLINOIS........

CITY           SKY/WX    TMP DP  RH WIND       PRES   REMARKS
QUINCY         NOT AVBL
CHICAGO        MOCLDY    67  56  67 NE9       30.01S




USA.gov is the U.S. government's official web portal to all federal, state and local government web resources and services.